CSN8479 ZGGG-ZSJN

Flight info

Callsign CSN8479
Flight time 2h 11m
Altitude 37100
Route LMN9 LMN G471 EGEDA/K0845S1160 G471 PLT/K0846S1130 W19 RUNEK DCT KHN/K0850S1160 DCT NCH/K0850S1130 DCT 294530N1171148E DCT VILID DCT HFE/K0848S1160 W127 ATVIM DCT 340540N1171150E/K0843S1130
Aircraft A20N/M-SDE2E3FGHIRWXY/LB1

Departure

Time 2026-04-25 07:19
Airport Guangzhou Baiyun International Airport (ZGGG)

Arrival

Time 2026-04-25 09:30
Airport Jinan Yaoqiang International Airport (ZSJN)
Time Latitude Longitude Altitude Speed Heading
2026-04-25 07:11 23.36136 113.31919 52 ft 3 kts 194°
2026-04-25 07:12 23.36105 113.31910 52 ft 5 kts 194°
2026-04-25 07:12 23.36046 113.31857 52 ft 7 kts 271°
2026-04-25 07:12 23.36054 113.31799 52 ft 8 kts 283°
2026-04-25 07:13 23.36043 113.31742 52 ft 8 kts 210°
2026-04-25 07:13 23.35983 113.31724 52 ft 6 kts 193°
2026-04-25 07:13 23.35934 113.31712 52 ft 7 kts 194°
2026-04-25 07:13 23.35891 113.31700 52 ft 3 kts 194°
2026-04-25 07:14 23.35865 113.31692 52 ft 4 kts 189°
2026-04-25 07:14 23.35841 113.31713 52 ft 5 kts 121°
2026-04-25 07:14 23.35832 113.31754 52 ft 6 kts 101°
2026-04-25 07:14 23.35819 113.31802 52 ft 7 kts 110°
2026-04-25 07:15 23.35788 113.31824 52 ft 6 kts 184°
2026-04-25 07:15 23.35741 113.31813 52 ft 7 kts 191°
2026-04-25 07:15 23.35685 113.31798 52 ft 8 kts 194°
2026-04-25 07:15 23.35639 113.31786 52 ft 5 kts 194°
2026-04-25 07:16 23.35594 113.31773 52 ft 7 kts 194°
2026-04-25 07:16 23.35559 113.31764 52 ft 5 kts 192°
2026-04-25 07:16 23.35530 113.31768 52 ft 4 kts 137°
2026-04-25 07:16 23.35515 113.31807 52 ft 5 kts 109°
2026-04-25 07:17 23.35503 113.31855 52 ft 6 kts 104°
2026-04-25 07:17 23.35493 113.31907 52 ft 5 kts 79°
2026-04-25 07:17 23.35531 113.31930 52 ft 6 kts 14°
2026-04-25 07:17 23.35577 113.31943 52 ft 7 kts 14°
2026-04-25 07:18 23.35629 113.31957 52 ft 9 kts 14°
2026-04-25 07:18 23.35930 113.32037 52 ft 80 kts 12°
2026-04-25 07:18 23.36724 113.32253 53 ft 142 kts 13°
2026-04-25 07:18 23.37881 113.32543 331 ft 166 kts 14°
2026-04-25 07:19 23.39000 113.32842 912 ft 167 kts
2026-04-25 07:19 23.40117 113.32642 1549 ft 169 kts 332°
2026-04-25 07:19 23.41118 113.31964 2070 ft 173 kts 338°
2026-04-25 07:19 23.42354 113.31878 2356 ft 186 kts 18°
2026-04-25 07:20 23.43486 113.32664 2662 ft 201 kts 44°
2026-04-25 07:20 23.44181 113.34130 3009 ft 220 kts 75°
2026-04-25 07:20 23.44627 113.35812 3362 ft 239 kts 65°
2026-04-25 07:20 23.45474 113.37456 4001 ft 245 kts 54°
2026-04-25 07:21 23.46551 113.38971 4616 ft 255 kts 49°
2026-04-25 07:21 23.47773 113.40453 5397 ft 259 kts 46°
2026-04-25 07:21 23.49018 113.41878 6213 ft 262 kts 45°
2026-04-25 07:21 23.50255 113.43359 7006 ft 266 kts 53°
2026-04-25 07:22 23.51124 113.45139 7762 ft 273 kts 69°
2026-04-25 07:22 23.51668 113.47176 8530 ft 279 kts 73°
2026-04-25 07:22 23.52150 113.49250 9270 ft 284 kts 73°
2026-04-25 07:22 23.52640 113.51355 10004 ft 288 kts 72°
2026-04-25 07:23 23.53154 113.53523 10691 ft 294 kts 72°
2026-04-25 07:23 23.53690 113.55744 11097 ft 311 kts 72°
2026-04-25 07:23 23.54238 113.58094 11448 ft 329 kts 72°
2026-04-25 07:23 23.54812 113.60584 11769 ft 347 kts 72°
2026-04-25 07:24 23.55414 113.63206 12070 ft 364 kts 72°
2026-04-25 07:24 23.56048 113.65958 12383 ft 380 kts 73°
2026-04-25 07:24 23.56632 113.68799 12889 ft 389 kts 76°
2026-04-25 07:24 23.57066 113.71738 13507 ft 394 kts 78°
2026-04-25 07:25 23.57452 113.74738 14126 ft 398 kts 79°
2026-04-25 07:25 23.57829 113.77724 14681 ft 404 kts 79°
2026-04-25 07:25 23.58219 113.80819 15253 ft 408 kts 79°
2026-04-25 07:25 23.58611 113.83921 15785 ft 414 kts 79°
2026-04-25 07:26 23.59011 113.87077 16322 ft 419 kts 79°
2026-04-25 07:26 23.59423 113.90317 16876 ft 423 kts 79°
2026-04-25 07:26 23.59849 113.93684 17439 ft 428 kts 79°
2026-04-25 07:26 23.60263 113.96964 17968 ft 432 kts 80°
2026-04-25 07:27 23.60682 114.00281 18492 ft 436 kts 80°
2026-04-25 07:27 23.61105 114.03651 18986 ft 441 kts 80°
2026-04-25 07:27 23.61533 114.07049 19454 ft 446 kts 80°
2026-04-25 07:27 23.61962 114.10457 19949 ft 450 kts 81°
2026-04-25 07:28 23.62396 114.13869 20413 ft 455 kts 81°
2026-04-25 07:28 23.62843 114.17295 20866 ft 459 kts 81°
2026-04-25 07:28 23.63296 114.20766 21313 ft 464 kts 81°
2026-04-25 07:28 23.63764 114.24362 21781 ft 468 kts 81°
2026-04-25 07:29 23.64232 114.27943 22236 ft 472 kts 80°
2026-04-25 07:29 23.65148 114.31419 22621 ft 473 kts 62°
2026-04-25 07:29 23.67025 114.34467 23089 ft 468 kts 42°
2026-04-25 07:29 23.69635 114.36856 23625 ft 463 kts 32°
2026-04-25 07:30 23.72374 114.39028 24079 ft 466 kts 31°
2026-04-25 07:30 23.75161 114.41229 24530 ft 470 kts 31°
2026-04-25 07:30 23.77904 114.43421 24952 ft 474 kts 32°
2026-04-25 07:30 23.80661 114.45652 25368 ft 477 kts 32°
2026-04-25 07:31 23.83536 114.48000 25800 ft 480 kts 32°
2026-04-25 07:31 23.86399 114.50346 26234 ft 483 kts 32°
2026-04-25 07:31 23.89349 114.52773 26633 ft 485 kts 32°
2026-04-25 07:31 23.92201 114.55119 27034 ft 488 kts 32°
2026-04-25 07:32 23.95038 114.57455 27404 ft 490 kts 32°
2026-04-25 07:32 23.97807 114.59738 27715 ft 493 kts 32°
2026-04-25 07:32 24.00611 114.62049 28030 ft 495 kts 32°
2026-04-25 07:32 24.03429 114.64375 28335 ft 498 kts 32°
2026-04-25 07:33 24.06236 114.66698 28665 ft 499 kts 32°
2026-04-25 07:33 24.09002 114.68984 29033 ft 498 kts 32°
2026-04-25 07:33 24.11814 114.71312 29411 ft 498 kts 32°
2026-04-25 07:33 24.14572 114.73597 29786 ft 497 kts 32°
2026-04-25 07:34 24.17358 114.75906 30154 ft 497 kts 32°
2026-04-25 07:34 24.20123 114.78197 30519 ft 496 kts 32°
2026-04-25 07:34 24.22991 114.80434 30914 ft 491 kts 27°
2026-04-25 07:34 24.25930 114.82391 31281 ft 487 kts 22°
2026-04-25 07:35 24.28965 114.84084 31593 ft 483 kts 18°
2026-04-25 07:35 24.32107 114.85520 31856 ft 480 kts 13°
2026-04-25 07:35 24.35269 114.86670 32181 ft 474 kts
2026-04-25 07:35 24.38460 114.87566 32546 ft 469 kts
2026-04-25 07:36 24.41695 114.88364 32882 ft 468 kts
2026-04-25 07:36 24.44977 114.89156 33164 ft 468 kts
2026-04-25 07:36 24.48247 114.89947 33428 ft 468 kts
2026-04-25 07:36 24.51501 114.90743 33661 ft 470 kts
2026-04-25 07:37 24.54780 114.91554 33918 ft 470 kts
2026-04-25 07:37 24.58069 114.92371 34245 ft 468 kts
2026-04-25 07:37 24.61372 114.93192 34543 ft 467 kts
2026-04-25 07:37 24.64618 114.93994 34811 ft 467 kts
2026-04-25 07:38 24.67895 114.94802 35057 ft 467 kts
2026-04-25 07:38 24.71154 114.95609 35336 ft 466 kts
2026-04-25 07:38 24.74450 114.96423 35541 ft 466 kts
2026-04-25 07:38 24.77702 114.97223 35698 ft 467 kts
2026-04-25 07:39 24.81017 114.98027 35886 ft 467 kts
2026-04-25 07:39 24.84332 114.98830 36085 ft 467 kts
2026-04-25 07:39 24.87571 114.99616 36229 ft 468 kts
2026-04-25 07:39 24.90906 115.00428 36375 ft 468 kts
2026-04-25 07:40 24.97524 115.02037 36567 ft 471 kts
2026-04-25 07:40 25.00799 115.02837 36738 ft 471 kts
2026-04-25 07:40 25.04070 115.03636 36879 ft 471 kts
2026-04-25 07:41 25.10709 115.05259 37044 ft 473 kts
2026-04-25 07:41 25.17221 115.06855 37137 ft 473 kts
2026-04-25 07:42 25.23754 115.08456 37136 ft 474 kts
2026-04-25 07:42 25.30346 115.09484 37132 ft 457 kts 351°
2026-04-25 07:43 25.36679 115.08989 37135 ft 442 kts 339°
2026-04-25 07:43 25.42575 115.07160 37131 ft 427 kts 328°
2026-04-25 07:44 25.48156 115.04387 37132 ft 421 kts 326°
2026-04-25 07:44 25.53606 115.01566 37130 ft 420 kts 326°
2026-04-25 07:45 25.59172 114.98695 37130 ft 421 kts 325°
2026-04-25 07:45 25.64758 114.95813 37141 ft 421 kts 326°
2026-04-25 07:46 25.70370 114.92920 37144 ft 419 kts 326°
2026-04-25 07:46 25.76150 114.90583 37151 ft 433 kts 336°
2026-04-25 07:47 25.82324 114.89787 37149 ft 451 kts 350°
2026-04-25 07:47 25.85557 114.90015 37146 ft 463 kts 357°
2026-04-25 07:47 25.88819 114.90700 37141 ft 475 kts
2026-04-25 07:48 25.95300 114.93087 37145 ft 481 kts
2026-04-25 07:48 26.02103 114.95822 37136 ft 481 kts
2026-04-25 07:49 26.08755 114.98471 37132 ft 481 kts
2026-04-25 07:49 26.15233 115.01039 37124 ft 480 kts
2026-04-25 07:50 26.21532 115.03529 37118 ft 482 kts
2026-04-25 07:50 26.28012 115.06097 37116 ft 483 kts
2026-04-25 07:51 26.34427 115.08644 37121 ft 480 kts
2026-04-25 07:51 26.41137 115.11304 37134 ft 481 kts
2026-04-25 07:52 26.47817 115.13960 37141 ft 482 kts
2026-04-25 07:52 26.54493 115.16621 37143 ft 479 kts
2026-04-25 07:53 26.61163 115.19277 37141 ft 480 kts
2026-04-25 07:53 26.67894 115.21967 37136 ft 479 kts
2026-04-25 07:54 26.74604 115.24649 37131 ft 480 kts
2026-04-25 07:54 26.81362 115.27350 37126 ft 480 kts
2026-04-25 07:55 26.88124 115.30036 37126 ft 479 kts
2026-04-25 07:55 26.94735 115.32661 37124 ft 480 kts
2026-04-25 07:56 27.01180 115.35234 37123 ft 481 kts
2026-04-25 07:56 27.07729 115.37850 37119 ft 481 kts
2026-04-25 07:57 27.14106 115.40404 37113 ft 481 kts
2026-04-25 07:57 27.20425 115.42931 37113 ft 479 kts
2026-04-25 07:58 27.26974 115.45550 37112 ft 480 kts
2026-04-25 07:58 27.33645 115.48224 37110 ft 481 kts
2026-04-25 07:59 27.40409 115.50944 37110 ft 480 kts
2026-04-25 07:59 27.47087 115.53636 37108 ft 479 kts
2026-04-25 08:00 27.53885 115.56372 37109 ft 476 kts
2026-04-25 08:00 27.60585 115.59068 37110 ft 476 kts
2026-04-25 08:01 27.67351 115.61802 37121 ft 476 kts
2026-04-25 08:01 27.73970 115.64479 37132 ft 475 kts
2026-04-25 08:02 27.80374 115.67056 37139 ft 475 kts
2026-04-25 08:02 27.86896 115.69662 37140 ft 476 kts
2026-04-25 08:03 27.93636 115.72369 37125 ft 474 kts
2026-04-25 08:03 28.00349 115.75068 37108 ft 473 kts
2026-04-25 08:04 28.07253 115.77844 37093 ft 475 kts
2026-04-25 08:04 28.13766 115.80477 37092 ft 475 kts
2026-04-25 08:05 28.20237 115.83096 37093 ft 474 kts
2026-04-25 08:05 28.26857 115.85784 37089 ft 474 kts 10°
2026-04-25 08:06 28.33491 115.88476 37088 ft 473 kts
2026-04-25 08:06 28.40260 115.90678 37090 ft 463 kts
2026-04-25 08:07 28.46904 115.91863 37093 ft 453 kts 355°
2026-04-25 08:07 28.53606 115.92130 37077 ft 444 kts 350°
2026-04-25 08:08 28.60044 115.91981 37098 ft 444 kts 350°
2026-04-25 08:08 28.66568 115.91819 37088 ft 444 kts 350°
2026-04-25 08:09 28.73057 115.91672 37109 ft 445 kts 350°
2026-04-25 08:09 28.79717 115.91662 37078 ft 450 kts 357°
2026-04-25 08:10 28.86052 115.93327 37098 ft 469 kts 14°
2026-04-25 08:10 28.91972 115.97153 37082 ft 488 kts 31°
2026-04-25 08:11 28.96784 116.02853 37088 ft 501 kts 46°
2026-04-25 08:11 29.01161 116.09309 37096 ft 504 kts 46°
2026-04-25 08:12 29.05567 116.15828 37099 ft 504 kts 46°
2026-04-25 08:12 29.10012 116.22346 37100 ft 503 kts 46°
2026-04-25 08:13 29.14356 116.28694 37096 ft 503 kts 46°
2026-04-25 08:14 29.20889 116.38258 37086 ft 503 kts 46°
2026-04-25 08:14 29.25314 116.44740 37088 ft 503 kts 46°
2026-04-25 08:15 29.29755 116.51267 37092 ft 503 kts 46°
2026-04-25 08:15 29.34233 116.57856 37094 ft 504 kts 46°
2026-04-25 08:16 29.38650 116.64365 37101 ft 503 kts 46°
2026-04-25 08:16 29.43009 116.70795 37099 ft 503 kts 47°
2026-04-25 08:17 29.47367 116.77236 37100 ft 504 kts 47°
2026-04-25 08:17 29.51797 116.83798 37103 ft 503 kts 47°
2026-04-25 08:18 29.56217 116.90352 37106 ft 504 kts 47°
2026-04-25 08:18 29.60669 116.96970 37110 ft 505 kts 47°
2026-04-25 08:19 29.65032 117.03474 37109 ft 503 kts 47°
2026-04-25 08:19 29.69524 117.10083 37106 ft 501 kts 44°
2026-04-25 08:20 29.74772 117.15203 37116 ft 486 kts 25°
2026-04-25 08:20 29.80927 117.18221 37133 ft 470 kts
2026-04-25 08:21 29.87330 117.19178 37143 ft 458 kts 356°
2026-04-25 08:21 29.93894 117.19511 37145 ft 457 kts 355°
2026-04-25 08:22 30.00445 117.19850 37151 ft 457 kts 356°
2026-04-25 08:22 30.07096 117.20220 37151 ft 458 kts 356°
2026-04-25 08:23 30.13528 117.20592 37141 ft 458 kts 356°
2026-04-25 08:23 30.19921 117.20959 37130 ft 457 kts 356°
2026-04-25 08:24 30.26244 117.21328 37003 ft 456 kts 357°
2026-04-25 08:24 30.32704 117.21706 37102 ft 456 kts 356°
2026-04-25 08:25 30.39153 117.22081 37136 ft 456 kts 357°
2026-04-25 08:25 30.45710 117.22465 37104 ft 455 kts 357°
2026-04-25 08:26 30.52261 117.22849 37078 ft 454 kts 357°
2026-04-25 08:26 30.58934 117.23239 37080 ft 455 kts 358°
2026-04-25 08:27 30.65521 117.23628 37085 ft 454 kts 358°
2026-04-25 08:27 30.72150 117.24020 37104 ft 454 kts 358°
2026-04-25 08:28 30.78760 117.24412 37169 ft 452 kts 358°
2026-04-25 08:28 30.85411 117.24805 37115 ft 452 kts 358°
2026-04-25 08:29 30.91912 117.25192 37103 ft 452 kts 358°
2026-04-25 08:29 30.98506 117.25583 37102 ft 452 kts 358°
2026-04-25 08:30 31.05205 117.25978 37110 ft 452 kts 358°
2026-04-25 08:30 31.11710 117.26365 37114 ft 451 kts 359°
2026-04-25 08:31 31.18026 117.26741 37119 ft 451 kts 358°
2026-04-25 08:31 31.24302 117.27114 37116 ft 450 kts 359°
2026-04-25 08:32 31.30623 117.27491 37114 ft 448 kts 359°
2026-04-25 08:32 31.36881 117.27866 37094 ft 447 kts 359°
2026-04-25 08:33 31.43120 117.28240 37108 ft 448 kts 359°
2026-04-25 08:33 31.49489 117.28625 37114 ft 447 kts 359°
2026-04-25 08:34 31.55835 117.29012 37113 ft 446 kts 359°
2026-04-25 08:34 31.62170 117.29364 37125 ft 446 kts 359°
2026-04-25 08:35 31.68563 117.29714 37121 ft 445 kts 359°
2026-04-25 08:35 31.74892 117.30061 37125 ft 444 kts 359°
2026-04-25 08:36 31.81248 117.30021 37130 ft 442 kts 354°
2026-04-25 08:36 31.87578 117.29689 37125 ft 441 kts 354°
2026-04-25 08:37 31.94096 117.29343 37084 ft 442 kts 354°
2026-04-25 08:37 32.00653 117.29013 37103 ft 442 kts 355°
2026-04-25 08:38 32.07515 117.28729 37118 ft 441 kts 355°
2026-04-25 08:38 32.13911 117.28448 37113 ft 440 kts 355°
2026-04-25 08:39 32.20389 117.28163 37105 ft 440 kts 355°
2026-04-25 08:39 32.26569 117.27889 37121 ft 439 kts 355°
2026-04-25 08:40 32.32829 117.27613 37113 ft 438 kts 355°
2026-04-25 08:40 32.38940 117.27342 37117 ft 438 kts 355°
2026-04-25 08:41 32.45110 117.27070 37117 ft 437 kts 355°
2026-04-25 08:41 32.51256 117.26799 37111 ft 437 kts 355°
2026-04-25 08:42 32.57452 117.26521 37116 ft 437 kts 355°
2026-04-25 08:42 32.64009 117.26227 37110 ft 436 kts 355°
2026-04-25 08:43 32.70280 117.25945 37113 ft 435 kts 355°
2026-04-25 08:43 32.76715 117.25813 37107 ft 435 kts 357°
2026-04-25 08:44 32.83059 117.25785 37111 ft 435 kts 357°
2026-04-25 08:44 32.89536 117.25737 37106 ft 435 kts 357°
2026-04-25 08:45 32.95919 117.25603 37108 ft 434 kts 355°
2026-04-25 08:45 33.02292 117.25260 37110 ft 433 kts 355°
2026-04-25 08:46 33.08419 117.24932 37111 ft 432 kts 355°
2026-04-25 08:46 33.14436 117.24619 37126 ft 431 kts 355°
2026-04-25 08:47 33.20603 117.24301 37111 ft 431 kts 355°
2026-04-25 08:47 33.26906 117.23981 37115 ft 430 kts 355°
2026-04-25 08:48 33.33470 117.23646 37114 ft 430 kts 355°
2026-04-25 08:48 33.39891 117.23322 37118 ft 428 kts 355°
2026-04-25 08:49 33.46469 117.22989 37115 ft 428 kts 355°
2026-04-25 08:49 33.53096 117.22653 37130 ft 427 kts 355°
2026-04-25 08:50 33.59542 117.22325 37106 ft 426 kts 355°
2026-04-25 08:50 33.66116 117.21993 37120 ft 427 kts 355°
2026-04-25 08:51 33.72762 117.21653 37108 ft 426 kts 355°
2026-04-25 08:51 33.79332 117.21319 37128 ft 426 kts 355°
2026-04-25 08:52 33.86001 117.20979 37141 ft 424 kts 356°
2026-04-25 08:52 33.92595 117.20636 37128 ft 423 kts 355°
2026-04-25 08:53 33.99146 117.19839 37121 ft 422 kts 351°
2026-04-25 08:53 34.05617 117.18918 37121 ft 423 kts 354°
2026-04-25 08:54 34.11939 117.18761 37105 ft 422 kts
2026-04-25 08:54 34.18052 117.19251 37097 ft 422 kts
2026-04-25 08:55 34.24276 117.19838 37099 ft 424 kts
2026-04-25 08:55 34.30574 117.20436 37095 ft 423 kts
2026-04-25 08:56 34.36977 117.21042 37095 ft 422 kts
2026-04-25 08:56 34.43524 117.21662 37094 ft 423 kts
2026-04-25 08:56 34.46715 117.21963 36906 ft 423 kts
2026-04-25 08:57 34.49941 117.22269 36580 ft 420 kts
2026-04-25 08:57 34.53218 117.22581 36259 ft 416 kts
2026-04-25 08:57 34.56391 117.22882 35979 ft 412 kts
2026-04-25 08:57 34.59425 117.23170 35748 ft 411 kts
2026-04-25 08:58 34.62649 117.23476 35504 ft 411 kts
2026-04-25 08:58 34.65902 117.23788 35255 ft 411 kts
2026-04-25 08:58 34.68990 117.24082 35023 ft 410 kts
2026-04-25 08:58 34.72144 117.24384 34783 ft 410 kts
2026-04-25 08:59 34.75283 117.24683 34543 ft 409 kts
2026-04-25 08:59 34.78502 117.24992 34295 ft 408 kts
2026-04-25 08:59 34.81646 117.25292 34023 ft 408 kts
2026-04-25 08:59 34.84817 117.25597 33742 ft 408 kts
2026-04-25 09:00 34.88035 117.25906 33459 ft 408 kts
2026-04-25 09:00 34.91254 117.26213 33173 ft 409 kts
2026-04-25 09:00 34.94413 117.26515 32891 ft 409 kts
2026-04-25 09:00 34.97614 117.26822 32609 ft 409 kts
2026-04-25 09:01 35.00838 117.27131 32328 ft 408 kts
2026-04-25 09:01 35.04031 117.27438 32044 ft 408 kts
2026-04-25 09:01 35.07205 117.27744 31762 ft 408 kts
2026-04-25 09:01 35.10372 117.28050 31485 ft 409 kts
2026-04-25 09:02 35.13240 117.28328 31232 ft 410 kts
2026-04-25 09:02 35.16101 117.28603 30977 ft 410 kts
2026-04-25 09:02 35.18941 117.28877 30725 ft 411 kts
2026-04-25 09:02 35.21849 117.29158 30468 ft 410 kts
2026-04-25 09:03 35.24771 117.29440 30208 ft 411 kts
2026-04-25 09:03 35.27690 117.29723 29936 ft 413 kts
2026-04-25 09:03 35.30635 117.30007 29663 ft 414 kts
2026-04-25 09:03 35.33600 117.30295 29390 ft 414 kts
2026-04-25 09:04 35.36525 117.30578 29120 ft 416 kts
2026-04-25 09:04 35.39449 117.30861 28853 ft 417 kts
2026-04-25 09:04 35.42411 117.31149 28579 ft 417 kts
2026-04-25 09:04 35.45414 117.31441 28305 ft 418 kts
2026-04-25 09:05 35.48492 117.31741 28025 ft 418 kts
2026-04-25 09:05 35.51528 117.32036 27747 ft 417 kts
2026-04-25 09:05 35.54628 117.32338 27460 ft 415 kts
2026-04-25 09:05 35.57597 117.32627 27185 ft 414 kts
2026-04-25 09:06 35.60500 117.32910 26917 ft 412 kts
2026-04-25 09:06 35.63502 117.33203 26641 ft 412 kts
2026-04-25 09:06 35.66730 117.33518 26346 ft 410 kts
2026-04-25 09:06 35.69941 117.33833 26052 ft 409 kts
2026-04-25 09:07 35.73095 117.34142 25766 ft 407 kts
2026-04-25 09:07 35.76251 117.34452 25468 ft 406 kts
2026-04-25 09:07 35.79390 117.34761 25181 ft 404 kts
2026-04-25 09:07 35.82522 117.35068 24888 ft 404 kts
2026-04-25 09:08 35.85618 117.35371 24582 ft 402 kts
2026-04-25 09:08 35.88759 117.35680 24279 ft 401 kts
2026-04-25 09:08 35.91949 117.35996 23973 ft 400 kts
2026-04-25 09:08 35.95050 117.36303 23667 ft 398 kts
2026-04-25 09:09 35.98081 117.36601 23371 ft 397 kts
2026-04-25 09:09 36.01218 117.36781 23077 ft 396 kts
2026-04-25 09:09 36.04268 117.36807 22788 ft 396 kts
2026-04-25 09:09 36.07297 117.36809 22480 ft 395 kts
2026-04-25 09:10 36.10308 117.36810 22110 ft 393 kts 360°
2026-04-25 09:10 36.13205 117.36809 21628 ft 392 kts 360°
2026-04-25 09:10 36.16208 117.36809 21018 ft 390 kts 359°
2026-04-25 09:10 36.19164 117.36810 20382 ft 388 kts 359°
2026-04-25 09:11 36.25183 117.36812 19066 ft 385 kts 359°
2026-04-25 09:11 36.28197 117.36813 18403 ft 384 kts 359°
2026-04-25 09:11 36.31187 117.36815 17754 ft 383 kts 359°
2026-04-25 09:12 36.34213 117.36815 17108 ft 382 kts 359°
2026-04-25 09:12 36.37134 117.36815 16491 ft 380 kts 359°
2026-04-25 09:12 36.40025 117.36816 15884 ft 378 kts 359°
2026-04-25 09:12 36.43000 117.36817 15262 ft 376 kts 359°
2026-04-25 09:13 36.45946 117.36819 14662 ft 374 kts 359°
2026-04-25 09:13 36.48704 117.36820 14093 ft 372 kts 359°
2026-04-25 09:13 36.51330 117.36823 13549 ft 370 kts 359°
2026-04-25 09:13 36.53897 117.36826 13008 ft 368 kts 359°
2026-04-25 09:14 36.56528 117.36829 12458 ft 366 kts 359°
2026-04-25 09:14 36.59078 117.36832 11913 ft 365 kts 359°
2026-04-25 09:14 36.61624 117.36839 11374 ft 363 kts 359°
2026-04-25 09:14 36.64181 117.36845 10921 ft 358 kts 359°
2026-04-25 09:15 36.66631 117.36848 10786 ft 343 kts 359°
2026-04-25 09:15 36.68963 117.36855 10777 ft 325 kts 359°
2026-04-25 09:15 36.71182 117.36861 10770 ft 308 kts 359°
2026-04-25 09:15 36.73317 117.36866 10762 ft 292 kts 359°
2026-04-25 09:16 36.75437 117.36871 10747 ft 276 kts 359°
2026-04-25 09:16 36.77463 117.36875 10522 ft 269 kts 359°
2026-04-25 09:16 36.79533 117.36879 10223 ft 265 kts 359°
2026-04-25 09:16 36.81574 117.36882 9952 ft 260 kts 359°
2026-04-25 09:17 36.85400 117.36890 9401 ft 252 kts 358°
2026-04-25 09:17 36.87342 117.36892 9066 ft 251 kts 358°
2026-04-25 09:17 36.89127 117.36893 8754 ft 250 kts 358°
2026-04-25 09:18 36.91000 117.36896 8418 ft 250 kts 358°
2026-04-25 09:18 36.92806 117.36898 8089 ft 250 kts 358°
2026-04-25 09:18 36.94691 117.36899 7744 ft 250 kts 358°
2026-04-25 09:18 36.96595 117.36901 7407 ft 250 kts 358°
2026-04-25 09:19 36.98521 117.36903 7053 ft 250 kts 358°
2026-04-25 09:19 37.00380 117.36905 6726 ft 250 kts 358°
2026-04-25 09:19 37.02298 117.36909 6398 ft 250 kts 358°
2026-04-25 09:19 37.04224 117.36911 6061 ft 250 kts 358°
2026-04-25 09:20 37.06117 117.36907 5804 ft 247 kts 358°
2026-04-25 09:20 37.08026 117.36899 5413 ft 250 kts 357°
2026-04-25 09:20 37.10001 117.36893 5005 ft 252 kts 358°
2026-04-25 09:20 37.11847 117.36888 4624 ft 254 kts 357°
2026-04-25 09:21 37.13744 117.36839 4236 ft 255 kts 351°
2026-04-25 09:21 37.15623 117.36214 3834 ft 251 kts 331°
2026-04-25 09:21 37.17090 117.34750 3426 ft 241 kts 297°
2026-04-25 09:21 37.17759 117.32735 3102 ft 228 kts 268°
2026-04-25 09:22 37.17433 117.30781 2911 ft 209 kts 237°
2026-04-25 09:22 37.16610 117.29363 2871 ft 193 kts 229°
2026-04-25 09:22 37.15805 117.28075 2847 ft 185 kts 229°
2026-04-25 09:22 37.15010 117.26791 2846 ft 186 kts 230°
2026-04-25 09:23 37.14251 117.25546 2912 ft 170 kts 230°
2026-04-25 09:23 37.13567 117.24414 2846 ft 155 kts 230°
2026-04-25 09:23 37.12941 117.23377 2821 ft 144 kts 229°
2026-04-25 09:23 37.12273 117.22439 2820 ft 143 kts 212°
2026-04-25 09:24 37.11345 117.21973 2839 ft 144 kts 195°
2026-04-25 09:24 37.10354 117.21769 2840 ft 145 kts 188°
2026-04-25 09:24 37.09334 117.21681 2836 ft 144 kts 185°
2026-04-25 09:24 37.08328 117.21645 2835 ft 144 kts 184°
2026-04-25 09:25 37.07298 117.21624 2852 ft 144 kts 184°
2026-04-25 09:25 37.06285 117.21612 2842 ft 144 kts 183°
2026-04-25 09:25 37.05283 117.21603 2853 ft 144 kts 183°
2026-04-25 09:25 37.04194 117.21604 2842 ft 143 kts 183°
2026-04-25 09:26 37.03191 117.21605 2837 ft 143 kts 183°
2026-04-25 09:26 37.02176 117.21605 2835 ft 143 kts 183°
2026-04-25 09:26 37.01184 117.21605 2686 ft 143 kts 183°
2026-04-25 09:26 37.00185 117.21604 2501 ft 142 kts 183°
2026-04-25 09:27 36.99181 117.21605 2316 ft 142 kts 183°
2026-04-25 09:27 36.98192 117.21605 2131 ft 141 kts 183°
2026-04-25 09:27 36.97200 117.21606 1948 ft 141 kts 184°
2026-04-25 09:27 36.96223 117.21604 1767 ft 140 kts 183°
2026-04-25 09:28 36.95237 117.21605 1585 ft 140 kts 183°
2026-04-25 09:28 36.94255 117.21606 1401 ft 140 kts 184°
2026-04-25 09:28 36.93282 117.21605 1224 ft 139 kts 183°
2026-04-25 09:28 36.92303 117.21604 1037 ft 139 kts 183°
2026-04-25 09:29 36.91335 117.21604 860 ft 138 kts 182°
2026-04-25 09:29 36.90363 117.21603 681 ft 138 kts 182°
2026-04-25 09:29 36.89394 117.21603 498 ft 138 kts 182°
2026-04-25 09:29 36.88443 117.21603 318 ft 136 kts 181°
2026-04-25 09:30 36.87505 117.21600 106 ft 131 kts 182°
2026-04-25 09:30 36.86652 117.21580 84 ft 92 kts 179°
2026-04-25 09:30 36.86309 117.21584 83 ft 12 kts 181°
2026-04-25 09:30 36.86221 117.21581 83 ft 12 kts 181°
2026-04-25 09:31 36.86132 117.21577 83 ft 13 kts 182°
2026-04-25 09:31 36.86041 117.21579 83 ft 13 kts 176°
2026-04-25 09:31 36.85944 117.21584 83 ft 13 kts 179°
2026-04-25 09:31 36.85847 117.21584 83 ft 14 kts 180°
2026-04-25 09:32 36.85754 117.21564 83 ft 13 kts 244°
2026-04-25 09:32 36.85747 117.21458 84 ft 8 kts 270°
2026-04-25 09:32 36.85737 117.21381 84 ft 9 kts 232°
2026-04-25 09:32 36.85674 117.21371 84 ft 9 kts 179°
2026-04-25 09:33 36.85602 117.21370 84 ft 10 kts 181°
2026-04-25 09:33 36.85538 117.21369 84 ft 8 kts 179°
2026-04-25 09:33 36.85479 117.21355 84 ft 9 kts 217°
2026-04-25 09:33 36.85463 117.21287 84 ft 8 kts 252°
2026-04-25 09:34 36.85431 117.21217 84 ft 9 kts 245°
2026-04-25 09:34 36.85402 117.21135 84 ft 10 kts 246°
2026-04-25 09:34 36.85370 117.21044 84 ft 11 kts 245°
2026-04-25 09:34 36.85341 117.20985 84 ft 5 kts 197°
2026-04-25 09:35 36.85301 117.20981 84 ft 6 kts 181°
2026-04-25 09:35 36.85254 117.20979 84 ft 7 kts 181°
2026-04-25 09:35 36.85197 117.20979 84 ft 8 kts 180°
2026-04-25 09:35 36.85134 117.20978 84 ft 7 kts 181°
2026-04-25 09:36 36.85104 117.20941 84 ft 5 kts 274°
2026-04-25 09:36 36.85104 117.20897 84 ft 3 kts 269°
2026-04-25 09:36 36.85104 117.20882 84 ft 0 kts 269°
2026-04-25 09:36 36.85104 117.20884 84 ft 0 kts 270°
2026-04-25 09:37 36.85104 117.20885 84 ft 0 kts 270°